Regional Weather Roundup
Issued by NWS

Home | Current Version | Previous Version | Graphics & Text | Print | Product List | Glossary On
Versions: 1 2 3 4 5 6 7 8 9 10 11 12 13 14 15 16 17 18 19 20 21 22 23 24 25 26 27 28 29 30 31 32 33 34 35 36 37 38 39 40 41 42 43 44 45 46 47 48 49 50
000
ASUS43 KMKX 131559
RWRWI

WISCONSIN REGIONAL WEATHER ROUNDUP
NATIONAL WEATHER SERVICE MILWAUKEE/SULLIVAN WI
1000 AM CST SAT FEB 13 2016

NOTE: "FAIR" INDICATES FEW OR NO CLOUDS BELOW 12,000 FEET WITH NO
SIGNIFICANT WEATHER AND/OR OBSTRUCTIONS TO VISIBILITY.

WIZ001-002-006>008-014>016-023>028-131700-
NORTHWEST WISCONSIN

CITY           SKY/WX    TMP DP  RH WIND       PRES   REMARKS
SUPERIOR ARPT  CLOUDY    -8 -19  60 SW3       30.64S
ASHLAND        CLOUDY    -4 -12  68 W7        30.60S WCI -18
HAYWARD        CLOUDY    -8 -17  64 VRB3      30.56F
SIREN          CLOUDY    -7 -17  61 CALM      30.62R
CUMBERLAND     CLOUDY    -8 -18  59 W3        30.57R
RICE LAKE      CLOUDY    -8 -18  61 CALM      30.61S
CHETEK         CLOUDY    -7 -17  60 CALM      30.60S
LADYSMITH      CLOUDY    -7 -16  64 CALM      30.57F
EAU CLAIRE     NOT AVBL
MENOMONIE      CLOUDY     4 -13  44 SW5       30.64R WCI  -5
NEW RICHMOND   CLOUDY    -5 -16  59 CALM      30.62R
OSCEOLA        CLOUDY    -3 -14  59 CALM      30.66S
$$

WIZ003>005-009-010-017-018-131700-
NORTH CENTRAL WISCONSIN

CITY           SKY/WX    TMP DP  RH WIND       PRES   REMARKS
MANITOWISH WTR CLOUDY    -3  -8  76 NW10      30.45S WCI -19
ARBOR VITAE    CLOUDY     0  -6  74 NW9       30.46R WCI -15
WOODRUFF       CLOUDY     0  -6  74 NW9       30.46R WCI -15
RHINELANDER    PTSUNNY   -2 -10  69 W8        30.47R WCI -17
EAGLE RIVER    SUNNY     -2  -9  70 W8        30.43R WCI -16
LAND O LAKES   CLOUDY     2  -5  73 W5        30.42S HAZE    WCI  -7
PHILLIPS       CLOUDY    -8 -14  76 W5        30.51S WCI -20
TOMAHAWK       PTSUNNY   -5 -12  72 NW8       30.51R WCI -20
MEDFORD        CLOUDY    -6 -14  67 N6        30.51S WCI -19
MERRILL        SUNNY     -4 -13  65 NW3       30.53R
$$

WIZ029-030-035-036-043>047-131700-
CENTRAL WISCONSIN

CITY           SKY/WX    TMP DP  RH WIND       PRES   REMARKS
WAUSAU         SUNNY     -1 -12  59 NW7       30.53S WCI -14
MOSINEE        SUNNY     -2 -11  65 NW9       30.54S WCI -18
MARSHFIELD     SUNNY     -3 -15  56 NW8       30.54R WCI -18
STEVENS POINT  SUNNY     -4 -14  61 NW7       30.55F WCI -17
WAUPACA        SUNNY      4 -11  49 W8        30.58S WCI  -9
WAUTOMA        NOT AVBL
WISC RAPIDS    SUNNY     -2 -14  56 N9        30.58F WCI -18
CAMP DOUGLAS   NOT AVBL
$$

WIZ011>013-019>022-031-037>040-048>050-131700-
NORTHEAST WISCONSIN

CITY           SKY/WX    TMP DP  RH WIND       PRES   REMARKS
ANTIGO         SUNNY     -5 -12  71 W10       30.48R WCI -22
SHAWANO        SUNNY      4  -9  54 W8        30.56R WCI -10
OCONTO         SUNNY      2  -9  59 NW10      30.54R WCI -14
STURGEON BAY   SUNNY      1  -8  66 W14       30.52R WCI -17
GREEN BAY      SUNNY      1  -9  62 NW14      30.56R WCI -17
MANITOWOC      NOT AVBL
APPLETON       NOT AVBL
CLINTONVILLE   SUNNY      1 -11  55 NW10      30.56S WCI -14
OSHKOSH        SUNNY     -1 -11  62 NW9       30.56S WCI -16
$$

WIZ032>034-041-042-053>061-131700-
SOUTHWEST WISCONSIN

CITY           SKY/WX    TMP DP  RH WIND       PRES   REMARKS
LA CROSSE      SUNNY      0 -13  54 NW5       30.66R WCI -10
SPARTA         SUNNY     -1 -13  55 N5        30.63R WCI -11
VIROQUA        SUNNY     -3 -15  57 NW7       30.56S WCI -16
BOSCOBEL       SUNNY      2 -13  49 W7        30.67R WCI -11
PRAIRIE DU CHI CLOUDY     2 -14  46 W6        30.68R WCI  -9
PLATTEVILLE    SUNNY      1 -12  55 NW5       30.61S WCI  -9
$$

WIZ056-057-062-063-064-067-068-131700-
SOUTH CENTRAL WISCONSIN

CITY           SKY/WX    TMP DP  RH WIND       PRES   REMARKS
REEDSBURG      SUNNY     -1 -13  57 NW6       30.59F WCI -13
BARABOO/DELLS  SUNNY      0 -14  51 CALM      30.59R
LONE ROCK      NOT AVBL
MINERAL POINT  SUNNY      1 -13  51 W5        30.58S WCI  -8
MADISON        SUNNY      1 -12  54 NW7       30.59S WCI -12
MIDDLETON      SUNNY      2 -11  53 NW8       30.59S WCI -11
WATERTOWN      SUNNY      2 -10  58 NW8       30.58R WCI -12
MONROE         SUNNY      5  -9  51 NW3       30.57S
JANESVILLE     SUNNY      7  -9  47 NW8       30.59R WCI  -6
$$

WIZ051-052-058>065-066-070>072-131700-
SOUTHEAST WISCONSIN

CITY           SKY/WX    TMP DP  RH WIND       PRES   REMARKS
MILWAUKEE      MOSUNNY    5 -10  50 NW12      30.58R WCI -11
WAUKESHA       SUNNY      1 -11  55 W12       30.57R WCI -15
MILWAUKEE/TIMM NOT AVBL
RACINE         SUNNY      5  -9  52 W12       30.59R WCI -11
BURLINGTON     SUNNY      4 -10  52 NW10      30.58R WCI -11
KENOSHA        SUNNY      6  -6  57 NW15      30.58R WCI -12
FOND DU LAC    SUNNY      1 -10  60 NW12      30.57R WCI -16
SHEBOYGAN      SUNNY      1 -10  60 W15       30.55R WCI -18
WEST BEND      SUNNY      1 -11  55 NW13      30.56R WCI -16
JUNEAU         SUNNY     -1 -12  60 NW8       30.58S WCI -16
$$

LSZ147-162-131700-
LAKE SUPERIOR

STATION/POSITION TIME  TEMP    WIND        PRES    WAVE
                       AIR SEA DIR/SP/G            HT/PER
                 (UTC) (F)     (DEG/KT/KT) (MB)    (FT/S)
DEVILS ISLAND    1500    2     260/ 11/ 14 1037.5F
SAXON HARBOR     1500   -2                 1035.6
$$

LMZ867-665-643>646-131700-
LAKE MICHIGAN

STATION/POSITION TIME  TEMP    WIND        PRES    WAVE
                       AIR SEA DIR/SP/G            HT/PER
                 (UTC) (F)     (DEG/KT/KT) (MB)    (FT/S)
CHAMBERS ISLAND  1500    4     290/  9/ 16 1032.2R
SISTER BAY       1519    5     360/ 22/ 26   N/A
ALGOMA LAKESHORE 1411          320/  7/ 11   N/A
KEWAUNEE LAKESHO 1500    0     290/ 12/ 17 1032.1F
SHEBOYGAN LAKESH 1500    1     290/ 15/ 18 1036.3R
PORT WASHINGTON  1500    3     290/  9/ 14 1035.9R
MILWAUKEE LAKESH 1510    3     310/  9/ 12   N/A
KENOSHA   LAKESH 1500    3     310/ 14/ 18 1034.9R
$$

TC  - TEMPERATURE IN CELSIUS
VSB - VISIBILITY IN STATUTE MILES
WCI - WIND CHILL INDEX
HX  - HEAT INDEX




USA.gov is the U.S. government's official web portal to all federal, state and local government web resources and services.